Location: Napa Soda Springs
(38.3907°N, 122.2794°W)
Time: 21:41:01
(UTC+00:00)

Meteor 2-19 Rocket - Pass Details

Date: 29 October 2020
Orbit: 936 x 959 km, 82.5° (Epoch: 24 November)

Event Time Altitude Azimuth Distance (km) Brightness Sun altitude
Rises 13:39:20 0° 191° (SSW) 3,603 7.5 -11.1°
Reaches altitude 10° 13:41:50 10° 194° (SSW) 2,659 6.8 -10.6°
Maximum altitude 13:47:54 72° 278° (W) 989 4.4 -9.4°
Drops below altitude 10° 13:53:58 10° 3° (N) 2,661 6.7 -8.3°
Sets 13:56:28 0° 6° (N) 3,606 7.4 -7.8°
